Domov               UVHVVR             MKGP            O straneh              
ZDRAVSTVENO VARSTVO RASTLIN
  MREŽA AGROMET. POSTAJ
 ► PROGNOSTIČNA OBVESTILA
AGROMETEOROLOŠKI PODATKI -
ARSO
OBVLADOVANJE TVEGANJ ZARADI
NEUGODNIH VREMENSKIH RAZMER
  ► NARAVNE NESREČE
  ► SUŠA/MOČA
  ► NAMAKANJE
  ► ŽLED (gozdarstvo)
KARTOGRAFSKI PRIKAZI
SPLETNE POVEZAVE
PROJEKTI IN PUBLIKACIJE

AGROMETEOROLOŠKA MREŽA: VREMENSKE POSTAJE IN FENOLOŠKA OPAZOVANJA

Pregled podatkov za lokacijo Maribor - BTŠ, meteorološka postaja 35810

Pregled senzorjev na lokaciji

ID Ime Zadnja
vrednost
Datum
zadnje
spremembe
Tip
senzorja
1721 Temperatura 2 m (°C) -1,86 °C 14.12.2017 06:30 Generic -40 - +60 °C
1722 Relativna vlaga 2 m (% RH) 99,93 % RH 14.12.2017 06:30 Generic 0 - 100 %
1723 Padavine (mm) 0 mm 14.12.2017 06:30 Generic 0.2 mm

Pregled podatkov zadnjih 24 ur

Zap.
št.
Datum in čas Maribor - BTŠ
Padavine Relativna
vlaga
2
m
Temperatura
2
m
0 14.12.2017 06:30 0 99,93 -1,86
1 14.12.2017 06:00 0 99,93 -2,08
2 14.12.2017 05:30 0 99,93 -2,08
3 14.12.2017 05:00 0 99,93 -2,17
4 14.12.2017 04:30 0 99,93 -2,15
5 14.12.2017 04:00 0 99,93 -1,98
6 14.12.2017 03:30 0 99,93 -2,1
7 14.12.2017 03:00 0 99,93 -2,47
8 14.12.2017 02:30 0 99,93 -2,59
9 14.12.2017 02:00 0 99,93 -2,74
10 14.12.2017 01:30 0 99,93 -2,64
11 14.12.2017 01:00 0 99,93 -2,74
12 14.12.2017 00:30 0 99,93 -2,78
13 14.12.2017 00:00 0 99,93 -2,49
14 13.12.2017 23:30 0 99,93 -2,37
15 13.12.2017 23:00 0 99,93 -2,25
16 13.12.2017 22:30 0 99,93 -1,25
17 13.12.2017 22:00 0 99,93 -1,56
18 13.12.2017 21:30 0 99,93 -0,93
19 13.12.2017 21:00 0 99,93 -0,93
20 13.12.2017 20:30 0 90,35 0,15
21 13.12.2017 20:00 0 95,92 -0,24
22 13.12.2017 19:30 0 98,29 -0,81
23 13.12.2017 19:00 0 89,62 0,46
24 13.12.2017 18:30 0 95,09 0,68
25 13.12.2017 18:00 0 96,07 0,83
26 13.12.2017 17:30 0 92,55 1,07
27 13.12.2017 17:00 0 85,69 1,44
28 13.12.2017 16:30 0 80,32 2,2
29 13.12.2017 16:00 0 72,45 2,95
30 13.12.2017 15:30 0 71,01 3,37
31 13.12.2017 15:00 0 72,28 4,54
32 13.12.2017 14:30 0 87,03 3,74
33 13.12.2017 14:00 0 91,65 2,59
34 13.12.2017 13:30 0,4 94,11 2,27
35 13.12.2017 13:00 1,2 97,34 2,15
36 13.12.2017 12:30 1,6 99,93 2,03
37 13.12.2017 12:00 1,8 99,93 2,2
38 13.12.2017 11:30 1,2 99,93 1,9
39 13.12.2017 11:00 0 99,93 1,64
40 13.12.2017 10:30 0 99,93 1,15
41 13.12.2017 10:00 0 99,93 0,66
42 13.12.2017 09:30 0,2 99,93 0,37
43 13.12.2017 09:00 0 99,93 0,1
44 13.12.2017 08:30 0 99,93 0,1
45 13.12.2017 08:00 0 99,93 -0,02
46 13.12.2017 07:30 0 99,93 -0,02
© 2011 Ministrstvo za kmetijstvo, gozdarstvo in prehrano. Vse pravice pridržane.